Regional Weather Roundup
Issued by NWS

Home | Current Version | Previous Version | Text Only | Print | Product List | Glossary On
Versions: 1 2 3 4 5 6 7 8 9 10 11 12 13 14 15 16 17 18 19 20 21 22 23 24 25 26 27 28 29 30 31 32 33 34 35 36 37 38 39 40 41 42 43 44 45 46 47 48 49 50
873
ASUS45 KSLC 261010
RWRUT

UTAH REGIONAL WEATHER ROUNDUP
NATIONAL WEATHER SERVICE SALT LAKE CITY UT
400 AM MDT SUN MAR 26 2017

UTZ001>011-023>025-261100-

NORTHERN UTAH

CITY           SKY/WX    TMP DP  RH WIND       PRES   REMARKS
BRIGHAM CITY     N/A     37  35  92 E3        30.03F
HILL AFB       PTCLDY    35  32  88 E9        30.02S WCI  28
LOGAN          CLEAR     33  30  88 E3        30.02S
OGDEN          CLEAR     34  32  92 S7        30.02S WCI  28
SALT LAKE CITY PTCLDY    36  36 100 SE5       30.02S WCI  32
WENDOVER       PTCLDY    37  29  72 SE5       30.01F WCI  33
HEBER CITY     CLEAR     28  27  93 CALM      30.00S

$$

UTZ011>015-024>027-261100-

CENTRAL/NORTHEAST UTAH

CITY           SKY/WX    TMP DP  RH WIND       PRES   REMARKS
PROVO AIRPORT  MOCLDY    38  36  92 S3        30.03F
MOAB/CANYONLAN PTCLDY    43  33  68 W12       29.88S
DELTA          CLEAR     32  32 100 S8        30.04S WCI  25
PRICE          CLEAR     38  26  62 NW16G26   29.93S WCI  29
RICHFIELD      CLEAR     32  32 100 CALM      30.05F
ROOSEVELT      CLOUDY    41  34  75 SW7       29.94S
VERNAL         MOCLDY    40  28  62 NE3       29.92R

$$

UTZ013>016-019>022-027-261100-

SOUTHERN UTAH

CITY           SKY/WX    TMP DP  RH WIND       PRES   REMARKS
BRYCE CANYON   CLEAR     26  22  84 NW8       30.00F WCI  18
CEDAR CITY     FOG       31  31 100 CALM      30.02S VSB 1/4
MILFORD        PTCLDY    32  31  96 W5        30.03F FOG     WCI  27
ST GEORGE      SUNNY     43  36  76 SE6       30.01S
HANKSVILLE     CLEAR     41  32  70 W7        29.95S
KANAB          CLEAR     32  30  93 N3        30.04F
BLANDING       MOCLDY    35  34  95 NE3       30.00S

$$

REGIONAL REPORTS     COLORADO/ARIZONA

CITY           SKY/WX    TMP DP  RH WIND       PRES   REMARKS
CRAIG, CO      CLOUDY    40  32  73 W13       29.92S WCI  32
GRAND JUNCTION CLOUDY    47  37  68 N8        29.87S
RIFLE, CO      LGT RAIN  41  38  89 W6        29.88F
MONTROSE, CO   LGT RAIN  40  38  93 SE8       29.91F WCI  34
CORTEZ, CO     CLOUDY    39  39 100 CALM      29.93F
COLORADO CITY    N/A     32  32 100 CALM      30.03F
PAGE, AZ       CLEAR     48  35  60 NW6       29.93F
GRAND CANYON   CLEAR     28  27  96 CALM      30.02F
KINGMAN, AZ    CLEAR     45  26  47 CALM      29.98F
FLAGSTAFF, AZ  CLEAR     28  24  85 SW8       30.00F WCI  20

$$

REGIONAL REPORTS    NEVADA/IDAHO/WYOMING

CITY           SKY/WX    TMP DP  RH WIND       PRES   REMARKS
LAS VEGAS, NV  PTCLDY    58  37  45 NE3       29.96F
ELY, NY        MOCLDY    26  24  92 S10       30.03F WCI  16
ELKO, NV       CLEAR     31  27  85 E5        30.01S WCI  26
POCATELLO, ID  CLEAR     36  27  69 SW9       30.00S WCI  29
BURLEY, ID     CLEAR     33  27  78 SW10      29.99F WCI  25
FORT BRIDGER,    N/A     30  30  99 SW8       30.02F WCI  23
EVANSTON, WY   CLEAR     26  22  84 SW8       30.00F WCI  18
ROCK SPRINGS,  CLOUDY    34  29  82 W15       29.96S WCI  24

$$




USA.gov is the U.S. government's official web portal to all federal, state and local government web resources and services.